Location: Unspecified
(51.4547°N, 0.0000°E)
Time: 05:02:09
(UTC+00:00)

NIMBUS 2 DEB - Visible Passes

Search period start: 04 April 2026 00:00
Search period end: 14 April 2026 00:00
Orbit: 926 x 995 km, 100.5° (Epoch: 28 March)

Date Brightness Start Highest point End Pass type
(mag) Time Alt. Az. Time Alt. Az. Time Alt. Az.
4 Apr ? 20:25:08 10° NE 20:30:26 29° E 20:31:53 27° ESE visible
4 Apr ? 22:07:30 10° NNE 22:13:35 62° WNW 22:16:13 34° SW visible
4 Apr ? 23:51:31 10° N 23:55:12 17° NW 23:58:51 10° W visible
5 Apr ? 20:45:05 10° NNE 20:50:51 40° E 20:52:31 33° SE visible
5 Apr ? 22:27:50 10° N 22:33:41 47° WNW 22:36:50 25° WSW visible
6 Apr ? 00:12:21 10° NNW 00:15:02 13° NW 00:17:42 10° WNW visible
6 Apr ? 21:05:09 10° NNE 21:11:11 54° ESE 21:13:08 39° SSE visible
6 Apr ? 22:48:12 10° N 22:53:44 36° WNW 22:57:27 19° WSW visible
7 Apr ? 00:33:53 10° NNW 00:34:48 10° NW 00:35:43 10° NW visible
7 Apr ? 19:44:25 10° NE 19:47:36 14° E 19:49:24 13° ESE visible
7 Apr ? 21:25:17 10° NNE 21:31:27 72° ESE 21:33:43 40° S visible
7 Apr ? 23:08:37 10° N 23:13:42 28° NW 23:18:03 13° WSW visible
8 Apr ? 20:03:45 10° NE 20:08:08 20° E 20:10:00 18° ESE visible
8 Apr ? 21:45:29 10° NNE 21:51:39 86° WNW 21:54:19 36° SSW visible
8 Apr ? 23:29:06 10° N 23:33:37 22° NW 23:38:05 10° W visible
9 Apr ? 20:23:27 10° NE 20:28:35 27° E 20:30:35 23° SE visible
9 Apr ? 22:05:43 10° NNE 22:11:48 65° WNW 22:14:54 29° SW visible
9 Apr ? 23:49:41 10° N 23:53:29 17° NW 23:57:15 10° W visible
10 Apr ? 20:43:20 10° NNE 20:48:58 37° E 20:51:09 28° SE visible
10 Apr ? 22:26:00 10° N 22:31:53 49° WNW 22:35:29 23° SW visible
11 Apr ? 00:10:24 10° NNW 00:13:17 14° NW 00:16:08 10° WNW visible
11 Apr ? 21:03:20 10° NNE 21:09:17 50° ESE 21:11:43 32° SSE visible
11 Apr ? 22:46:20 10° N 22:51:53 38° WNW 22:56:02 17° WSW visible
12 Apr ? 00:31:38 10° NNW 00:33:01 11° NW 00:34:23 10° NW visible
12 Apr ? 19:42:52 10° ENE 19:45:36 13° E 19:47:57 11° ESE visible
12 Apr ? 21:23:25 10° NNE 21:29:31 68° ESE 21:32:16 34° S visible
12 Apr ? 23:06:42 10° N 23:11:51 29° NW 23:16:35 11° WSW visible
13 Apr ? 20:02:00 10° NE 20:06:06 19° E 20:08:29 15° ESE visible
13 Apr ? 21:43:33 10° NNE 21:49:42 89° ESE 21:52:49 31° SSW visible
13 Apr ? 23:27:07 10° N 23:31:43 23° NW 23:36:17 10° W visible
